Flag for Canada Weather past 2 weeks in Iqaluit, Nunavut Territory, Canada

Now
5 °F

Light snow. Broken clouds.


Feels Like: -2 °F
Forecast: 5 / 17 °F
Wind: 3 mph from Southeast

Location: Iqaluit


UV Index: 0 (Low)

Visibility: 12 mi


Pressure: 29.92 "Hg

Humidity: 78%

Dew point: 0 °F

Location of IqaluitLocation

Historic Weather in Iqaluit

°F

Iqaluit temperature yesterday

Maximum temperature yesterday: 16 °F (at 1:00 PM)
Minimum temperature yesterday: 1 °F (at 12:00 AM)
Average temperature yesterday: 10 °F

Past Weeks' High & Low Weather Summary

 TemperatureHumidityPressure
High16 °F (Apr 9, 1:00 PM)85% (Apr 8, 8:00 PM)30.17 "Hg (Apr 8, 8:00 PM)
Low-18 °F (Apr 6, 6:00 AM)47% (Apr 17, 4:00 PM)29.04 "Hg (Apr 10, 11:00 AM)
Average3 °F70%29.74 "Hg
* Reported Apr 6 6:00 AM — Apr 21 6:00 AM, Iqaluit, Weather by CustomWeather, © 2014

Note: Actual official high and low records may vary slightly from our data, if they occured in-between our weather recording intervals... More about our weather records

Advertising

Historic Weather Conditions — Data for Previous 24 hours

 ConditionsComfort  
Time TempWeatherWind HumidityBarometerVisibility
6:00 AM
Apr 21
5 °FLight snow. Broken clouds.3 mph78%29.92 "Hg12 mi
5:00 AM7 °FLight snow. Overcast.2 mph85%29.92 "Hg5 mi
4:00 AM7 °FLight snow. Overcast.3 mph85%29.92 "Hg10 mi
3:00 AM9 °FLight snow. Overcast.2 mph78%29.92 "Hg10 mi
2:00 AM9 °FLight snow. Overcast.3 mph85%29.93 "Hg10 mi
1:00 AM9 °FLight snow. Passing clouds.3 mph78%29.94 "Hg15 mi
12:00 AM10 °FLight snow. Passing clouds.No wind72%29.95 "Hg15 mi
11:55 PM
Apr 20
10 °FLight snow. Overcast.2 mph72%29.95 "Hg15 mi
11:00 PM10 °FOvercast.No wind72%29.96 "Hg15 mi
10:00 PM9 °FOvercast.3 mph78%29.98 "Hg15 mi
9:00 PM9 °FPassing clouds.2 mph72%29.98 "Hg15 mi
8:00 PM10 °FPassing clouds.No wind79%29.99 "Hg25 mi
7:00 PM12 °FPassing clouds.2 mph79%29.99 "Hg25 mi
6:00 PM14 °FPassing clouds.2 mph79%29.99 "Hg30 mi
5:00 PM14 °FPartly sunny.2 mph79%30.00 "Hg30 mi
4:00 PM16 °FScattered clouds.5 mph67%30.00 "Hg30 mi
3:00 PM16 °FPartly sunny.5 mph67%30.00 "Hg30 mi
2:00 PM16 °FPartly sunny.3 mph67%30.01 "Hg30 mi
1:00 PM16 °FBroken clouds.3 mph67%30.01 "Hg15 mi
12:00 PM14 °FPartly sunny.3 mph73%30.02 "Hg20 mi
11:00 AM12 °FLight snow. Overcast.2 mph73%30.03 "Hg10 mi
10:00 AM12 °FLight snow. Overcast.2 mph73%30.04 "Hg8 mi
9:00 AM10 °FLight snow. Overcast.2 mph72%30.04 "Hg8 mi
8:00 AM9 °FLight snow. Overcast.No wind78%30.04 "Hg10 mi
7:00 AM7 °FLight snow. Overcast.2 mph78%30.03 "Hg15 mi
6:00 AM5 °FLight snow. Overcast.No wind85%30.03 "Hg15 mi
Weather by CustomWeather, © 2014

See weather overview